Location: *
(51.8167°N, 12.5000°E)
Time: 14:20:00
(UTC+00:00)

SL-16 R/B - Pass Details

Date: 16 September 2019
Orbit: 840 x 849 km, 71.0° (Epoch: 18 October)

Event Time Altitude Azimuth Distance (km) Brightness Sun altitude
Rises 20:39:17 0° 326° (NW) 3,416 6.6 -27.6°
Reaches altitude 10° 20:41:48 10° 321° (NW) 2,478 5.6 -27.8°
Maximum altitude 20:47:14 49° 249° (WSW) 1,092 2.8 -28.4°
Enters shadow 20:47:40 48° 234° (SW) 1,105 2.7 -28.4°
